STARLINK-32710, 62604

Orbit data source: Space-Track

STARLINK-32710, 62604 is a payload satellite owned by SpaceX/Seattle (US) in LEO that was launched on Mon, 13 Jan 2025 UTC via an FALCON 9 launch vehicle from the Air Force Eastern Test Range (AFETR). Payload-class satellites include a variety of spacecraft equipped with specific instruments for various scientific and technological missions. These include communications satellites like Starlink; space stations such as the ISS; scientific satellites like the Hubble; Earth observation satellites from companies like Planet Labs, Umbra, and HawkEye 360; GPS; miniature CubeSats for education and research; and military/defense satellites.

Loading next visibility...
Identifier
62604, 2025-008T
Orbit
LEO
Country
Flag of USUS
Related business
Manufacturer
SpaceX/Seattle
Mission
Operational Commercial Communications
Bus & Motor
STARLINK V2M, Unknown motor
Mass
730 kg wet, ~700 kg dry
Launch date (UTC)
2025-01-13 (8 months ago)
Launch vehicle
FALCON 9
Launch site
Air Force Eastern Test Range (AFETR)
Object type
Payload
Rocket body
Debris
Shape & HBR
Box + 2 Pan, 14.5 m
Radar Cross Section
33.884 m², Large (>1 m²)

Expand to show TLE details & history
Last TLE update: 2 days ago

TLE from 2 days ago
0 STARLINK-32710
1 62604U 25008T   25259.46998496  .00030907  00000-0  11263-2 0  9995
2 62604  42.9985 181.4778 0003169 277.1695  82.8796 15.27626643 38923
Epoch: 2025-09-16T11:16Z
TLE epoch observation values (Epoch: 2025-09-16T11:16:46.7Z)
Latitude
-0.00004°
Longitude
16.62335°
Altitude
482.416 km
Speed
7.626 km/s
True Right ascension
12h 05m 54s
True Declination
0° 00' 00"
Sunlit
Object was in daylight at epoch
Visualization orbit readout
Latitude
Unknown
Longitude
Unknown
Altitude
Unknown
Speed
Unknown
Apparent Right ascension
Unknown
Apparent Declination
Unknown
Sunlit
N/A
Visualization observer readout
Local Sidereal Time
23:33:31
Azimuth
Unknown
Elevation
Unknown
Doppler factor
Unknown
Orbital elements
Apogee altitude
487.03 km
Perigee altitude
482.68 km
Semi-major axis
6,862.992 km
Eccentricity
0.00032
Inclination
42.9985°
RAAN
181.4778°
Arg. of periapsis
277.1695°
True anomaly
82.91564°
Mean anomaly
82.8796°
Eccentric anomaly
82.89762°
Mean motion
3.81745 °/min
Orbital period
94.3 mins
BSTAR
0.0011263
Loading maneuver chart data...
Computing Atmospheric mass density...
Loading historical data...
Loading historical data...
Loading historical data...
Loading historical data...
Loading historical data...
Loading historical data...
Loading historical data...

Documentation

Showing up to 5 results
|